FW8434 Weather Reports


time (UTC)temp
C
wind
direction
speed
KPH
gust
KPH
rain 1hr
cm
rain 24hr
cm
rain mn
cm
humidity
%
barometer
mb
20260503194530 29 128 1.6 6.4 0.00 0.03 0.03 46 1008.6
20260503193028 29 170 0.0 4.8 0.00 0.03 0.03 45 1008.6
20260503191528 28 145 0.0 4.8 0.00 0.03 0.03 49 1008.9
20260503190029 28 0 0.0 3.2 0.00 0.03 0.03 48 1009.2
20260503184534 27 210 0.0 3.2 0.00 0.03 0.03 51 1009.2
20260503183031 27 262 0.0 4.8 0.00 0.03 0.03 50 1009.4
20260503181528 26 0 0.0 4.8 0.00 0.03 0.03 51 1009.4
20260503180034 25 226 1.6 8.0 0.00 0.03 0.03 53 1009.4
20260503174533 25 284 0.0 4.8 0.00 0.03 0.03 54 1009.5
20260503173034 23 229 1.6 8.0 0.00 0.03 0.03 53 1009.7
20260503171537 22 356 1.6 9.7 0.00 0.03 0.03 54 1009.8
20260503081534 13 0 0.0 1.6 0.00 0.03 0.00 92 1010.6
20260503071549 14 0 0.0 3.2 0.00 0.03 0.00 90 1011.1
20260503054529 14 0 0.0 1.6 0.00 0.03 0.03 89 1011.2
20260503053036 15 317 0.0 1.6 0.00 0.03 0.03 88 1010.7
20260503051529 15 0 0.0 1.6 0.00 0.03 0.03 87 1010.7
20260503050028 15 0 0.0 1.6 0.00 0.03 0.03 87 1011.0
20260503044542 15 0 0.0 1.6 0.00 0.03 0.03 85 1011.1
20260503043042 16 0 0.0 3.2 0.00 0.03 0.03 83 1011.3
20260503041527 17 0 0.0 3.2 0.00 0.03 0.03 81 1011.3
20260503040033 16 42 1.6 4.8 0.00 0.03 0.03 82 1011.0
20260503034530 17 0 0.0 4.8 0.00 0.03 0.03 81 1011.0
20260503033029 17 38 1.6 4.8 0.00 0.03 0.03 81 1010.9
20260503031532 17 0 0.0 1.6 0.00 0.03 0.03 79 1011.0
20260503030028 17 265 0.0 9.7 0.00 0.03 0.03 78 1010.9
20260503024528 18 243 1.6 4.8 0.00 0.03 0.03 75 1010.8
20260503023030 18 207 1.6 9.7 0.00 0.03 0.03 74 1010.8
20260503021529 19 155 1.6 4.8 0.00 0.03 0.03 74 1010.8
20260503020030 19 0 0.0 0.0 0.00 0.03 0.03 74 1010.2
20260503014528 20 0 0.0 0.0 0.00 0.03 0.03 73 1010.0
20260503013028 20 0 0.0 0.0 0.00 0.03 0.03 72 1010.0
20260503011535 20 0 0.0 0.0 0.00 0.03 0.03 72 1009.9
20260503010036 20 0 0.0 0.0 0.00 0.03 0.03 71 1010.0
20260503004527 21 0 0.0 1.6 0.00 0.03 0.03 70 1010.0
20260503003027 21 232 0.0 1.6 0.00 0.03 0.03 70 1010.1
20260503001530 20 0 0.0 4.8 0.00 0.03 0.03 71 1010.0
20260503000042 20 254 1.6 6.4 0.00 0.03 0.03 68 1010.1
20260502234529 20 224 0.0 4.8 0.00 0.03 0.03 69 1010.2
20260502233029 21 236 3.2 9.7 0.00 0.03 0.03 65 1010.2
20260502231535 22 0 1.6 6.4 0.00 0.03 0.03 67 1010.4
20260502230030 21 268 3.2 8.0 0.00 0.03 0.03 67 1010.4
20260502224528 22 246 1.6 3.2 0.00 0.03 0.03 67 1010.4
20260502223031 21 0 0.0 4.8 0.00 0.03 0.03 72 1010.7
20260502221528 20 30 1.6 6.4 0.00 0.03 0.03 65 1011.1
20260502220028 20 0 1.6 6.4 0.00 0.03 0.03 68 1011.4
20260502214527 20 104 1.6 6.4 0.00 0.03 0.03 70 1011.5
20260502213037 19 0 0.0 3.2 0.00 0.03 0.03 72 1011.5
20260502211534 18 249 0.0 4.8 0.00 0.03 0.03 70 1011.7
20260502210028 18 236 0.0 3.2 0.00 0.03 0.03 72 1012.2
20260502204530 17 0 0.0 6.4 0.00 0.03 0.03 73 1012.4
20260502203030 17 224 1.6 8.0 0.00 0.03 0.03 74 1012.5
20260502201529 17 178 0.0 8.0 0.00 0.03 0.03 75 1012.7
20260502200029 16 219 1.6 11.3 0.00 0.03 0.03 76 1012.9